Torna al catalogo

DELTA 1 DEB

AttivoLEO
NORAD 14528·DEBRIS·🇺🇸 United States

Lanciato Jul 14, 1977 da Cape Canaveral Space Force Station

Loading…

Prossimi Passaggi (prossime 24 ore)

TLE

AggiornatoSource: Space-Track

Epoca: Sep 13, 2026, 17:07 UTC

1 14528U 77065FP  26256.71354190  .00000185  00000-0  64481-3 0  9996
2 14528  28.0748  89.1275 0316255 207.2114 151.1498 12.46629779587149

Traccia DELTA 1 DEB in tempo reale con AllMySat

Download on the App Store